Location: Chantarel
(45.1638°N, 1.7873°E)
Time: 14:59:49
(UTC+00:00)

ATLAS CENTAUR R/B - Pass Details

Date: 03 March 2021
Orbit: 475 x 670 km, 64.7° (Epoch: 30 March)

Event Time Altitude Azimuth Distance (km) Brightness Sun altitude
Rises 19:56:26 0° 242° (WSW) 2,520 5.4 -24.1°
Reaches altitude 10° 19:58:46 10° 254° (WSW) 1,642 4.5 -24.5°
Maximum altitude 20:01:57 28° 315° (NW) 924 3.0 -25.0°
Enters shadow 20:03:16 22° 351° (N) 1,085 3.0 -25.3°
